Weather History for KHLX - May, 2013

Change the Weather History Date:

Friday, May 10, 2013

  Actual Average (KBLF) Record (KBLF)
Temperature  
Mean Temperature 68 °F 61 °F  
Max Temperature 78 °F 71 °F 83 °F (2007)
Min Temperature 57 °F 52 °F 24 °F (1966)
Degree Days  
Heating Degree Days 0 5  
Month to date heating degree days 59  
Since 1 July heating degree days 4489  
Cooling Degree Days 2 2  
Month to date cooling degree days 11  
Year to date cooling degree days 39  
Growing Degree Days 18 (Base 50)    
Moisture  
Dew Point 57 °F    
Average Humidity 75    
Maximum Humidity 94    
Minimum Humidity 47    
Precipitation  
Precipitation 0.77 in 0.13 in 0.37 in (1990)
Month to date precipitation 1.31  
Year to date precipitation 13.82  
Snow  
Snow 0.00 in - - ()
Month to date snowfall  
Since 1 July snowfall  
Snow Depth -    
Sea Level Pressure  
Sea Level Pressure 30.10 in    
Wind  
Wind Speed 5 mph (SSW)    
Max Wind Speed 15 mph    
Max Gust Speed 22 mph    
Visibility 9 miles    
Events Rain    
T = Trace of Precipitation, MM = Missing Value Source: NWS Daily Summary

Daily Weather History Graph

Daily Weather History Graph

Search for Another Location

Airport or City:

Trip Planner

Search our weather history database for the weather conditions in past years. The results will help you decide how hot, cold, wet, or windy it might be!

Date:

Astronomy

May. 10, 2013 Rise Set
Actual Time 6:19 AM EDT 8:19 PM EDT
Civil Twilight 5:51 AM EDT 8:48 PM EDT
Nautical Twilight 5:16 AM EDT 9:23 PM EDT
Astronomical Twilight 4:39 AM EDT 10:00 PM EDT
Moon 6:43 AM EDT (5/10) 9:07 PM EDT (5/10)
Length of Visible Light 14h 57m
Length of Day
14h 00m
New Moon, 0% of the Moon is Illuminated
May 10
New Moon
May 18
First Quarter
May 25
Full
May 31
Last Quarter
Jun 8
New

Hourly Weather History & Observations

Time (EDT) Temp. Dew Point Humidity Pressure Visibility Wind Dir Wind Speed Gust Speed Precip Events Conditions
12:15 AM 64.4 °F 53.6 °F 68% 30.17 in 10.0 mi SSW 5.8 mph - N/A   Clear
12:35 AM 64.4 °F 51.8 °F 64% 30.17 in 10.0 mi South 4.6 mph - N/A   Scattered Clouds
12:55 AM 62.6 °F 51.8 °F 68% 30.17 in 10.0 mi South 3.5 mph - N/A   Clear
1:15 AM 64.4 °F 51.8 °F 64% 30.17 in 10.0 mi SSW 4.6 mph - N/A   Clear
1:35 AM 62.6 °F 51.8 °F 68% 30.16 in 10.0 mi SSW 4.6 mph - N/A   Clear
2:15 AM 62.6 °F 53.6 °F 72% 30.15 in 10.0 mi SSW 5.8 mph - N/A   Clear
2:35 AM 62.6 °F 53.6 °F 72% 30.16 in 10.0 mi SW 3.5 mph - N/A   Clear
2:55 AM 60.8 °F 53.6 °F 77% 30.16 in 10.0 mi SSW 4.6 mph - N/A   Clear
3:15 AM 60.8 °F 53.6 °F 77% 30.15 in 10.0 mi SSW 4.6 mph - N/A   Clear
3:35 AM 59.0 °F 53.6 °F 82% 30.15 in 10.0 mi SSE 4.6 mph - N/A   Clear
3:55 AM 60.8 °F 53.6 °F 77% 30.15 in 10.0 mi South 5.8 mph - N/A   Clear
4:15 AM 60.8 °F 53.6 °F 77% 30.13 in 10.0 mi South 4.6 mph - N/A   Clear
4:55 AM 60.8 °F 53.6 °F 77% 30.13 in 10.0 mi South 4.6 mph - N/A   Clear
5:15 AM 57.2 °F 53.6 °F 88% 30.13 in 10.0 mi SSW 4.6 mph - N/A   Clear
5:35 AM 57.2 °F 53.6 °F 88% 30.14 in 10.0 mi SSW 4.6 mph - N/A   Clear
5:55 AM 57.2 °F 53.6 °F 88% 30.13 in 10.0 mi SSW 5.8 mph - N/A   Clear
6:15 AM 57.2 °F 53.6 °F 88% 30.13 in 10.0 mi SSW 5.8 mph - N/A   Clear
6:35 AM 57.2 °F 53.6 °F 88% 30.14 in 10.0 mi SSW 5.8 mph - N/A   Clear
6:55 AM 57.2 °F 53.6 °F 88% 30.14 in 10.0 mi SSW 5.8 mph - N/A   Clear
7:15 AM 57.2 °F 53.6 °F 88% 30.14 in 10.0 mi South 5.8 mph - N/A   Clear
7:35 AM 57.2 °F 53.6 °F 88% 30.15 in 10.0 mi SW 3.5 mph - N/A   Clear
8:15 AM 60.8 °F 55.4 °F 82% 30.13 in 10.0 mi Calm Calm - N/A   Clear
8:35 AM 62.6 °F 55.4 °F 77% 30.14 in 10.0 mi South 3.5 mph - N/A   Clear
9:15 AM 66.2 °F 57.2 °F 73% 30.13 in 10.0 mi SSW 3.5 mph - N/A   Clear
9:35 AM 68.0 °F 60.8 °F 78% 30.13 in 10.0 mi Calm Calm - N/A   Clear
9:55 AM 69.8 °F 57.2 °F 64% 30.13 in 10.0 mi Calm Calm - N/A   Clear
10:15 AM 71.6 °F 57.2 °F 60% 30.13 in 10.0 mi Calm Calm - N/A   Clear
10:35 AM 71.6 °F 59.0 °F 64% 30.13 in 10.0 mi South 5.8 mph - N/A   Clear
10:55 AM 73.4 °F 59.0 °F 61% 30.13 in 10.0 mi WSW 5.8 mph - N/A   Clear
11:15 AM 73.4 °F 57.2 °F 57% 30.13 in 10.0 mi SW 5.8 mph - N/A   Clear
11:35 AM 73.4 °F 57.2 °F 57% 30.12 in 10.0 mi South 5.8 mph - N/A   Clear
11:55 AM 75.2 °F 57.2 °F 53% 30.12 in 10.0 mi South 6.9 mph - N/A   Clear
12:15 PM 77.0 °F 55.4 °F 47% 30.12 in 10.0 mi South 10.4 mph 17.3 mph N/A   Clear
12:35 PM 75.2 °F 53.6 °F 47% 30.12 in 10.0 mi South 15.0 mph 18.4 mph N/A   Clear
1:15 PM 75.2 °F 55.4 °F 50% 30.10 in 10.0 mi South 6.9 mph 17.3 mph N/A   Clear
1:35 PM 77.0 °F 55.4 °F 47% 30.10 in 10.0 mi South 9.2 mph 16.1 mph N/A   Scattered Clouds
1:55 PM 77.0 °F 57.2 °F 50% 30.09 in 10.0 mi South 10.4 mph 18.4 mph N/A   Clear
2:15 PM 77.0 °F 57.2 °F 50% 30.09 in 10.0 mi South 10.4 mph 18.4 mph N/A   Clear
2:35 PM 77.0 °F 57.2 °F 50% 30.07 in 10.0 mi South 9.2 mph 17.3 mph N/A   Clear
2:55 PM 77.0 °F 59.0 °F 54% 30.07 in 10.0 mi SSE 9.2 mph 18.4 mph N/A   Scattered Clouds
3:15 PM 78.8 °F 57.2 °F 47% 30.06 in 10.0 mi South 11.5 mph 16.1 mph N/A   Clear
3:35 PM 77.0 °F 55.4 °F 47% 30.06 in 10.0 mi South 12.7 mph 18.4 mph N/A   Clear
3:55 PM 75.2 °F 57.2 °F 53% 30.05 in 10.0 mi South 8.1 mph 19.6 mph N/A   Scattered Clouds
4:15 PM 75.2 °F 57.2 °F 53% 30.05 in 10.0 mi South 9.2 mph 18.4 mph N/A   Clear
4:35 PM 75.2 °F 57.2 °F 53% 30.04 in 10.0 mi South 10.4 mph 17.3 mph N/A   Clear
4:55 PM 73.4 °F 59.0 °F 61% 30.05 in 10.0 mi South 9.2 mph 17.3 mph N/A   Scattered Clouds
5:15 PM 66.2 °F 60.8 °F 83% 30.07 in 4.0 mi West 12.7 mph 21.9 mph 0.08 in Rain Rain
5:35 PM 64.4 °F 60.8 °F 88% 30.06 in 10.0 mi West 4.6 mph - 0.33 in Rain Light Rain
5:55 PM 64.4 °F 60.8 °F 88% 30.08 in 4.0 mi WSW 12.7 mph - 0.07 in Rain Heavy Rain
6:15 PM 62.6 °F 60.8 °F 94% 30.05 in 10.0 mi SW 9.2 mph - 0.22 in Rain Light Rain
6:35 PM 64.4 °F 60.8 °F 88% 30.06 in 10.0 mi WSW 5.8 mph - 0.22 in   Scattered Clouds
6:55 PM 62.6 °F 60.8 °F 94% 30.05 in 10.0 mi Calm Calm - N/A   Scattered Clouds
7:15 PM 62.6 °F 60.8 °F 94% 30.06 in 10.0 mi SW 3.5 mph - N/A   Mostly Cloudy
7:35 PM 62.6 °F 60.8 °F 94% 30.06 in 5.0 mi WSW 4.6 mph - 0.04 in Rain Rain
7:55 PM 62.6 °F 60.8 °F 94% 30.07 in 2.5 mi Calm Calm - 0.03 in Rain Heavy Rain
8:15 PM 62.6 °F 60.8 °F 94% 30.07 in 2.0 mi South 4.6 mph - 0.09 in Rain Heavy Rain
8:35 PM 62.6 °F 60.8 °F 94% 30.06 in 4.0 mi SSE 4.6 mph - 0.18 in Rain Rain
8:55 PM 62.6 °F 60.8 °F 94% 30.06 in 10.0 mi South 5.8 mph - N/A   Mostly Cloudy
9:15 PM 62.6 °F 60.8 °F 94% 30.06 in 7.0 mi South 4.6 mph - N/A   Overcast
9:35 PM 62.6 °F 60.8 °F 94% 30.06 in 10.0 mi South 4.6 mph - N/A   Light Drizzle
9:55 PM 62.6 °F 60.8 °F 94% 30.05 in 7.0 mi South 5.8 mph - N/A   Scattered Clouds
10:15 PM 62.6 °F 60.8 °F 94% 30.05 in 7.0 mi Calm Calm - N/A   Scattered Clouds
10:35 PM 62.6 °F 60.8 °F 94% 30.04 in 2.0 mi Calm Calm - N/A Rain Light Rain
10:55 PM 62.6 °F 60.8 °F 94% 30.03 in 10.0 mi Calm Calm - N/A   Clear
11:15 PM 62.6 °F 60.8 °F 94% 30.04 in 10.0 mi SSW 6.9 mph - N/A   Clear
11:35 PM 62.6 °F 60.8 °F 94% 30.05 in 10.0 mi SSW 5.8 mph - N/A   Clear
11:55 PM 62.6 °F 60.8 °F 94% 30.04 in 10.0 mi South 4.6 mph - N/A   Clear